La Junta, CO

4:47 AM MDT on March 26, 2017 (GMT -0600)
La Junta Municipal

Weather History for KLHX - June, 2013

Change the Weather History Date:

Monday, June 17, 2013

  Actual Average Record
Temperature  
Mean Temperature 72 °F 73 °F  
Max Temperature 90 °F 89 °F 103 °F (1960)
Min Temperature 54 °F 58 °F 46 °F (1945)
Degree Days  
Heating Degree Days 0 0  
Month to date heating degree days 11 15  
Since 1 June heating degree days 11 15  
Since 1 July heating degree days 5085 5270  
Cooling Degree Days 7 9  
Month to date cooling degree days 178 109  
Year to date cooling degree days 316 182  
Since 1 June cooling degree days 178 109  
Growing Degree Days 22 (Base 50)    
Moisture  
Dew Point 53 °F    
Average Humidity 58    
Maximum Humidity 93    
Minimum Humidity 22    
Precipitation  
Precipitation 1.52 in 0.04 in 1.52 in (2013)
Month to date precipitation 1.82 0.79  
Year to date precipitation 2.49  
Sea Level Pressure  
Sea Level Pressure 29.99 in    
Wind  
Wind Speed 10 mph (ESE)    
Max Wind Speed 47 mph    
Max Gust Speed 56 mph    
Visibility 8 miles    
Events Fog , Rain    
T = Trace of Precipitation, MM = Missing Value Source: NWS Daily Summary

Daily Weather History Graph

Daily Weather History Graph

Search for Another Location

Airport or City:

Trip Planner

Search our weather history database for the weather conditions in past years. The results will help you decide how hot, cold, wet, or windy it might be!

Date:

Astronomy

Jun. 17, 2013 Rise Set
Actual Time 5:30 AM MDT 8:19 PM MDT
Civil Twilight 4:59 AM MDT 8:50 PM MDT
Nautical Twilight 4:19 AM MDT 9:30 PM MDT
Astronomical Twilight 3:34 AM MDT 10:15 PM MDT
Moon 2:05 PM MDT (6/17) 1:02 AM MDT (6/17)
Length of Visible Light 15h 51m
Length of Day
14h 48m
First Quarter, 61% of the Moon is Illuminated
Jun 17
First Quarter
Jun 23
Full
Jun 29
Last Quarter
Jul 8
New
Jul 15
First Quarter

Hourly Weather History & Observations

Time (MDT) Temp. Dew Point Humidity Pressure Visibility Wind Dir Wind Speed Gust Speed Precip Events Conditions
12:53 AM 63.0 °F 55.0 °F 75% 29.90 in 10.0 mi South 9.2 mph - N/A   Clear
1:53 AM 59.0 °F 54.0 °F 83% 29.89 in 10.0 mi NW 4.6 mph - N/A   Clear
2:53 AM 57.0 °F 53.1 °F 87% 29.91 in 10.0 mi NNE 5.8 mph - N/A   Clear
3:53 AM 55.9 °F 52.0 °F 87% 29.92 in 10.0 mi Calm Calm - N/A   Clear
4:53 AM 54.0 °F 51.1 °F 90% 30.00 in 10.0 mi East 3.5 mph - N/A   Clear
5:53 AM 55.9 °F 53.1 °F 90% 29.99 in 10.0 mi Calm Calm - N/A   Clear
6:53 AM 61.0 °F 55.0 °F 81% 30.00 in 10.0 mi WSW 6.9 mph - N/A   Clear
7:53 AM 64.0 °F 54.0 °F 70% 30.01 in 10.0 mi SW 8.1 mph - N/A   Clear
8:53 AM 70.0 °F 52.0 °F 53% 29.98 in 10.0 mi WSW 12.7 mph - N/A   Clear
9:53 AM 75.9 °F 48.0 °F 37% 29.99 in 10.0 mi Calm Calm - N/A   Clear
10:53 AM 79.0 °F 46.0 °F 31% 29.97 in 10.0 mi WSW 6.9 mph - N/A   Clear
11:53 AM 82.9 °F 48.9 °F 31% 29.95 in 10.0 mi ESE 11.5 mph - N/A   Clear
12:53 PM 84.9 °F 48.0 °F 28% 29.92 in 10.0 mi ESE 17.3 mph 24.2 mph N/A   Clear
1:53 PM 87.1 °F 48.0 °F 26% 29.91 in 10.0 mi ESE 16.1 mph 24.2 mph N/A   Clear
2:53 PM 84.9 °F 50.0 °F 30% 29.89 in 10.0 mi East 17.3 mph - N/A   Clear
3:53 PM 89.1 °F 48.0 °F 24% 29.84 in 10.0 mi East 21.9 mph 26.5 mph N/A   Clear
4:53 PM 87.1 °F 45.0 °F 23% 29.87 in 10.0 mi SE 13.8 mph 19.6 mph N/A   Scattered Clouds
5:41 PM 64.4 °F 55.4 °F 73% 30.12 in 2.5 mi North 47.2 mph 56.4 mph 0.05 in Rain Light Rain
5:44 PM 60.8 °F 55.4 °F 82% 30.11 in 1.0 mi North 43.7 mph 56.4 mph 0.13 in   Haze
5:53 PM 55.0 °F 53.1 °F 93% 30.06 in 0.2 mi ENE 20.7 mph 51.8 mph 0.70 in Fog , Rain Heavy Rain
6:01 PM 55.4 °F 55.4 °F 100% 30.13 in 0.5 mi East 19.6 mph 33.4 mph 0.34 in Fog , Rain Heavy Rain
6:07 PM 57.2 °F 55.4 °F 94% 30.10 in 1.0 mi East 24.2 mph 33.4 mph 0.49 in Rain Heavy Rain
6:17 PM 60.8 °F 57.2 °F 88% 30.11 in 1.2 mi East 15.0 mph - 0.71 in Rain Heavy Rain
6:24 PM 60.8 °F 57.2 °F 88% 30.10 in 2.0 mi East 19.6 mph - 0.78 in Rain Heavy Rain
6:35 PM 62.6 °F 55.4 °F 77% 30.09 in 6.0 mi East 21.9 mph 27.6 mph 0.81 in Rain Light Rain
6:53 PM 64.9 °F 57.0 °F 75% 29.95 in 10.0 mi SE 19.6 mph - 0.81 in   Overcast
7:53 PM 69.1 °F 55.0 °F 61% 29.94 in 10.0 mi South 4.6 mph - 0.00 in   Mostly Cloudy
8:53 PM 66.9 °F 55.9 °F 68% 29.94 in 10.0 mi SE 11.5 mph - 0.01 in   Clear
9:53 PM 63.0 °F 55.0 °F 75% 30.01 in 10.0 mi East 10.4 mph - N/A   Scattered Clouds
10:53 PM 62.1 °F 55.9 °F 80% 30.04 in 10.0 mi Calm Calm - N/A   Overcast
11:53 PM 63.0 °F 54.0 °F 72% 30.02 in 10.0 mi SW 3.5 mph - N/A   Clear